Terug naar catalogus

SES 19

ActiefCommunicatieGEO
NORAD 55971·PAYLOAD·🇱🇺 Luxembourg

Gelanceerd Mar 17, 2023 vanaf Cape Canaveral Space Force Station

Loading…

TLE

VersSource: CelesTrak SupGP

Epoch: Sep 13, 2026, 23:30 UTC

1 55971C 23038B   26256.97916667  .00000178  00000+0  00000+0 0  2565
2 55971   0.0518 278.7045 0001617 238.6497  53.2284  1.00269173    14

Volg SES 19 in realtime met AllMySat

Download on the App Store